User: anonymous   Login
Location: Fort Wayne
(41.1310°N, 85.1290°W)
Time: 07:33:58
(UTC-05:00)
Language:

MetOp-A - Orbit

View from above orbital plane
View from above orbital plane
View from above satellite
View from above satellite

Ground track
Ground track

The orbit data is extracted from the following two-line orbital elements,

1 29499U 06044A   15064.48878657  .00000162  00000-0  93809-4 0  9998
2 29499 098.6889 125.5357 0002009 101.0886 320.8191 14.21491017434551
Epoch (UTC): 05 March 2015 11:43:51
Eccentricity: 0.0002009
inclination: 98.6889°
perigee height: 819 km
apogee height: 822 km
right ascension of ascending node: 125.5357°
argument of perigee: 101.0886°
revolutions per day: 14.21491017
mean anomaly at epoch: 320.8191°
orbit number at epoch: 43455

The dashed part of the orbit path shows where the satellite is in the earth's shadow,  

DLR